Ludington, MI

7:55 PM EST on January 21, 2017 (GMT -0500)
Mason County

Weather History for KLDM - June, 2013

Change the Weather History Date:

Tuesday, June 25, 2013

  Actual Average Record
Temperature  
Mean Temperature 69 °F -  
Max Temperature 75 °F 78 °F 91 °F (1966)
Min Temperature 62 °F 53 °F 37 °F (1979)
Cooling Degree Days 4    
Growing Degree Days 19 (Base 50)    
Moisture  
Dew Point 64 °F    
Average Humidity 84    
Maximum Humidity 91    
Minimum Humidity 74    
Precipitation  
Precipitation 0.07 in - - ()
Sea Level Pressure  
Sea Level Pressure 29.88 in    
Wind  
Wind Speed 6 mph (SW)    
Max Wind Speed 16 mph    
Max Gust Speed 22 mph    
Visibility 8 miles    
Events Fog , Rain    
Averages and records for this station are not official NWS values.
T = Trace of Precipitation, MM = Missing Value Source: NWS Daily Summary

Daily Weather History Graph

Daily Weather History Graph

Search for Another Location

Airport or City:

Trip Planner

Search our weather history database for the weather conditions in past years. The results will help you decide how hot, cold, wet, or windy it might be!

Date:

Astronomy

Jun. 25, 2013 Rise Set
Actual Time 6:04 AM EDT 9:32 PM EDT
Civil Twilight 5:27 AM EDT 10:08 PM EDT
Nautical Twilight 4:40 AM EDT 10:56 PM EDT
Astronomical Twilight 3:39 AM EDT 11:56 PM EDT
Moon 11:10 PM EDT (6/25) 8:49 AM EDT (6/25)
Length of Visible Light 16h 40m
Length of Day
15h 28m
Waning Gibbous, 93% of the Moon is Illuminated
Jun 25
Waning Gibbous
Jun 30
Last Quarter
Jul 8
New
Jul 15
First Quarter
Jul 22
Full

Hourly Weather History & Observations

Time (EDT) Temp. Dew Point Humidity Pressure Visibility Wind Dir Wind Speed Gust Speed Precip Events Conditions
12:15 AM 70.3 °F 64.0 °F 80% 29.90 in 10.0 mi Calm Calm - N/A   Scattered Clouds
12:35 AM 71.1 °F 62.4 °F 74% 29.91 in 10.0 mi SW 8.1 mph - N/A   Scattered Clouds
12:55 AM 71.6 °F 62.8 °F 74% 29.90 in 10.0 mi SW 10.4 mph - N/A   Clear
1:15 AM 70.3 °F 62.6 °F 76% 29.89 in 10.0 mi South 4.6 mph - N/A   Scattered Clouds
1:35 AM 70.3 °F 62.8 °F 77% 29.88 in 10.0 mi SE 3.5 mph - N/A   Scattered Clouds
1:55 AM 70.3 °F 63.5 °F 79% 29.88 in 10.0 mi Calm Calm - N/A   Scattered Clouds
2:15 AM 70.3 °F 63.7 °F 79% 29.89 in 10.0 mi South 3.5 mph - N/A   Clear
2:35 AM 70.3 °F 62.8 °F 77% 29.89 in 10.0 mi SW 5.8 mph - N/A   Clear
2:55 AM 70.3 °F 64.8 °F 82% 29.89 in 10.0 mi South 6.9 mph - N/A   Scattered Clouds
3:15 AM 70.3 °F 63.5 °F 79% 29.88 in 10.0 mi SSW 6.9 mph - N/A   Scattered Clouds
3:35 AM 70.3 °F 64.4 °F 81% 29.88 in 10.0 mi SW 8.1 mph - N/A   Scattered Clouds
3:55 AM 70.3 °F 64.0 °F 80% 29.88 in 10.0 mi SSW 5.8 mph - N/A   Mostly Cloudy
4:15 AM 70.3 °F 64.4 °F 81% 29.89 in 10.0 mi SW 9.2 mph - N/A   Overcast
4:35 AM 70.3 °F 64.6 °F 82% 29.88 in 10.0 mi SW 6.9 mph - N/A   Overcast
4:55 AM 68.0 °F 62.8 °F 83% 29.90 in 10.0 mi SW 8.1 mph - N/A   Mostly Cloudy
5:15 AM 66.2 °F 61.9 °F 86% 29.90 in 7.0 mi SW 6.9 mph - N/A   Scattered Clouds
5:35 AM 65.3 °F 61.7 °F 88% 29.90 in 5.0 mi SW 6.9 mph - N/A Rain Light Rain
5:55 AM 65.3 °F 61.9 °F 89% 29.90 in 3.0 mi SW 6.9 mph - 0.02 in Rain Rain
6:15 AM 65.3 °F 62.1 °F 89% 29.91 in 3.0 mi SW 6.9 mph - 0.03 in Rain Rain
6:35 AM 65.3 °F 62.2 °F 90% 29.91 in 3.0 mi SW 6.9 mph - 0.05 in Rain Light Rain
6:55 AM 65.3 °F 62.2 °F 90% 29.89 in 1.8 mi Calm Calm - 0.05 in Rain Light Rain
7:15 AM 65.3 °F 62.6 °F 91% 29.89 in 1.0 mi SW 4.6 mph - N/A   Overcast
7:35 AM 65.3 °F 62.6 °F 91% 29.89 in 2.5 mi WSW 6.9 mph - N/A   Overcast
7:55 AM 65.3 °F 62.6 °F 91% 29.88 in 4.0 mi SSW 8.1 mph - N/A   Overcast
8:15 AM 65.3 °F 62.2 °F 90% 29.88 in 7.0 mi SW 8.1 mph - N/A   Mostly Cloudy
8:35 AM 67.5 °F 64.0 °F 89% 29.87 in 5.0 mi SW 6.9 mph - N/A   Mostly Cloudy
8:55 AM 70.3 °F 66.6 °F 88% 29.87 in 7.0 mi SSW 4.6 mph - N/A   Mostly Cloudy
9:15 AM 70.3 °F 66.6 °F 88% 29.88 in 7.0 mi Calm Calm - N/A   Overcast
9:35 AM 70.3 °F 66.4 °F 87% 29.91 in 10.0 mi WSW 3.5 mph - N/A   Overcast
9:55 AM 70.3 °F 65.8 °F 86% 29.93 in 10.0 mi SW 11.5 mph 17.3 mph N/A   Overcast
10:15 AM 65.3 °F 61.9 °F 89% 29.94 in 0.5 mi SW 11.5 mph 16.1 mph N/A Fog Fog
10:35 AM 65.3 °F 62.1 °F 89% 29.94 in 1.5 mi SW 9.2 mph - N/A   Overcast
10:55 AM 65.7 °F 62.6 °F 90% 29.92 in 5.0 mi SW 12.7 mph - N/A   Overcast
11:15 AM 68.9 °F 64.6 °F 86% 29.92 in 7.0 mi SW 12.7 mph - N/A   Overcast
11:35 AM 68.0 °F 63.7 °F 86% 29.94 in 10.0 mi SW 16.1 mph 21.9 mph N/A   Overcast
11:55 AM 65.3 °F 61.5 °F 88% 29.95 in 10.0 mi SW 16.1 mph 21.9 mph N/A   Overcast
12:15 PM 65.3 °F 61.7 °F 88% 29.93 in 10.0 mi SSW 9.2 mph - N/A   Overcast
12:35 PM 65.3 °F 61.3 °F 87% 29.91 in 10.0 mi South 8.1 mph - N/A   Overcast
12:55 PM 68.0 °F 63.5 °F 85% 29.89 in 10.0 mi South 5.8 mph - N/A   Scattered Clouds
1:15 PM 70.3 °F 65.5 °F 85% 29.88 in 10.0 mi Calm Calm - N/A   Clear
1:35 PM 70.3 °F 64.8 °F 82% 29.86 in 10.0 mi SE 4.6 mph - N/A   Clear
1:55 PM 72.9 °F 66.4 °F 80% 29.85 in 10.0 mi East 4.6 mph - N/A   Clear
2:15 PM 75.4 °F 67.8 °F 77% 29.88 in 10.0 mi South 6.9 mph - N/A   Scattered Clouds
2:35 PM 70.3 °F 64.2 °F 81% 29.90 in 10.0 mi SW 16.1 mph 20.7 mph N/A   Overcast
2:55 PM 70.3 °F 65.3 °F 84% 29.90 in 10.0 mi SW 11.5 mph 19.6 mph N/A   Overcast
3:15 PM 70.3 °F 63.9 °F 80% 29.90 in 10.0 mi West 8.1 mph - N/A   Mostly Cloudy
3:35 PM 70.7 °F 63.9 °F 79% 29.90 in 10.0 mi WSW 10.4 mph - N/A   Scattered Clouds
3:55 PM 70.3 °F 64.8 °F 82% 29.90 in 10.0 mi WSW 4.6 mph - N/A   Clear
4:15 PM 70.3 °F 64.4 °F 81% 29.89 in 10.0 mi SW 6.9 mph - N/A   Clear
4:35 PM 70.3 °F 65.7 °F 85% 29.90 in 10.0 mi WSW 4.6 mph - N/A   Mostly Cloudy
4:55 PM 70.3 °F 64.2 °F 81% 29.90 in 10.0 mi West 8.1 mph - N/A   Scattered Clouds
5:15 PM 69.4 °F 64.8 °F 85% 29.90 in 7.0 mi SW 6.9 mph - N/A   Mostly Cloudy
5:35 PM 70.3 °F 63.5 °F 79% 29.89 in 10.0 mi West 3.5 mph - N/A   Scattered Clouds
5:55 PM 70.3 °F 63.3 °F 78% 29.88 in 10.0 mi West 4.6 mph - N/A   Clear
6:15 PM 72.9 °F 64.6 °F 75% 29.87 in 10.0 mi West 4.6 mph - N/A   Clear
6:35 PM 72.3 °F 64.8 °F 77% 29.86 in 10.0 mi WSW 5.8 mph - N/A   Clear
6:55 PM 70.3 °F 63.7 °F 79% 29.85 in 10.0 mi Calm Calm - N/A   Clear
7:15 PM 72.9 °F 65.5 °F 78% 29.85 in 10.0 mi SW 5.8 mph - N/A   Clear
7:35 PM 70.5 °F 63.7 °F 79% 29.85 in 10.0 mi South 3.5 mph - N/A   Clear
7:55 PM 71.6 °F 64.0 °F 77% 29.85 in 10.0 mi Calm Calm - N/A   Clear
8:15 PM 71.2 °F 63.7 °F 77% 29.84 in 10.0 mi Calm Calm - N/A   Clear
8:35 PM 70.3 °F 65.3 °F 84% 29.84 in 10.0 mi ENE 4.6 mph - N/A   Clear
8:55 PM 70.3 °F 65.3 °F 84% 29.83 in 10.0 mi East 3.5 mph - N/A   Clear
9:15 PM 70.3 °F 65.1 °F 83% 29.83 in 10.0 mi Calm Calm - N/A   Clear
9:35 PM 70.3 °F 66.2 °F 87% 29.83 in 10.0 mi Calm Calm - N/A   Clear
9:55 PM 68.4 °F 64.4 °F 87% 29.83 in 10.0 mi Calm Calm - N/A   Clear
10:15 PM 65.3 °F 61.9 °F 89% 29.83 in 10.0 mi East 3.5 mph - N/A   Clear
10:35 PM 64.6 °F 61.5 °F 90% 29.84 in 7.0 mi Calm Calm - N/A   Clear
10:55 PM 65.3 °F 62.2 °F 90% 29.84 in 10.0 mi SW 3.5 mph - N/A   Clear
11:15 PM 65.3 °F 62.1 °F 89% 29.84 in 10.0 mi Calm Calm - N/A   Clear
11:35 PM 63.3 °F 60.3 °F 90% 29.84 in 7.0 mi Calm Calm - N/A   Clear
11:55 PM 62.8 °F 59.9 °F 90% 29.84 in 2.0 mi Calm Calm - N/A   Clear